This is the latest recevied weather packets stored in our database for station/object KD0SBN-3. If no packets are shown the sender has not sent any weather packets the latest 10 day(s).
| Time | Temp. | Humidity | Pressure | Rain* | Wind** | Luminosity | Snow |
|---|---|---|---|---|---|---|---|
| 1778078044 | -3.33° C | 96% | 1020.7 hPa | 0 mm | - | 54 W/m² | - |
| 1778077743 | -3.33° C | 96% | 1020.7 hPa | 0 mm | - | 49 W/m² | - |
| 1778077441 | -3.33° C | 96% | 1020.7 hPa | 0 mm | - | 33 W/m² | - |
| 1778077139 | -3.33° C | 96% | 1020.6 hPa | 0 mm | - | 29 W/m² | - |
| 1778076836 | -3.33° C | 96% | 1020.6 hPa | 0 mm | - | 34 W/m² | - |
| 1778076534 | -3.33° C | 96% | 1020.7 hPa | 0 mm | - | 33 W/m² | - |
| 1778076231 | -3.33° C | 96% | 1020.6 hPa | 0 mm | - | 30 W/m² | - |
| 1778075928 | -3.33° C | 96% | 1020.4 hPa | 0 mm | - | 33 W/m² | - |
| 1778075625 | -3.33° C | 96% | 1020.4 hPa | 0 mm | - | 28 W/m² | - |
| 1778075321 | -3.33° C | 96% | 1020.4 hPa | 0 mm | - | 32 W/m² | - |
| 1778075017 | -3.33° C | 96% | 1020.6 hPa | 0 mm | - | 22 W/m² | - |
| 1778074714 | -3.33° C | 96% | 1020.2 hPa | 0 mm | - | 23 W/m² | - |
| 1778074411 | -3.33° C | 96% | 1020 hPa | 0 mm | - | 20 W/m² | - |
| 1778074108 | -3.33° C | 96% | 1020.3 hPa | 0 mm | - | 10 W/m² | - |
| 1778073805 | -3.33° C | 96% | 1020.3 hPa | 0 mm | - | 12 W/m² | - |
| 1778073503 | -3.33° C | 96% | 1020 hPa | 0 mm | - | 7 W/m² | - |
| 1778073199 | -3.33° C | 96% | 1020.2 hPa | 0 mm | - | 8 W/m² | - |
| 1778072896 | -3.33° C | 96% | 1020.2 hPa | 0 mm | - | 8 W/m² | - |
| 1778072593 | -3.33° C | 96% | 1020.2 hPa | 0 mm | - | 8 W/m² | - |
| 1778072291 | -3.33° C | 96% | 1020.2 hPa | 0 mm | - | 8 W/m² | - |
| 1778071988 | -3.33° C | 96% | 1019.9 hPa | 0 mm | - | 7 W/m² | - |
| 1778071687 | -3.33° C | 96% | 1020 hPa | 0 mm | - | 6 W/m² | - |
| 1778071384 | -3.33° C | 96% | 1019.9 hPa | 0 mm | - | 5 W/m² | - |
| 1778071081 | -3.33° C | 96% | 1019.8 hPa | 0 mm | - | 5 W/m² | - |
| 1778070780 | -3.33° C | 96% | 1019.4 hPa | 0 mm | - | 5 W/m² | - |
* Rain latest hour (hover to see other rain measurements)
** Current wind speed in m/s (hover to see current wind gust speed)